Regional Weather Roundup
Issued by NWS

Home | Current Version | Previous Version | Text Only | Print | Product List | Glossary Off
Versions: 1 2 3 4 5 6 7 8 9 10 11 12 13 14 15 16 17 18 19 20 21 22 23 24 25 26 27 28

000
ASUS45 KCYS 232210
RWRWY

WYOMING REGIONAL WEATHER ROUNDUP
NATIONAL WEATHER SERVICE CHEYENNE WY
300 PM MST THU NOV 23 2017

NOTE:  "FAIR" INDICATES FEW OR NO CLOUDS BELOW 12,000 FEET
WITH NO SIGNIFICANT WEATHER AND/OR OBSTRUCTIONS TO VISIBILITY.

WYZ001-232300-
YELLOWSTONE NATIONAL PARK

CITY           SKY/WX    TMP DP  RH WIND       PRES   REMARKS
LK YELLOWSTONE   N/A     44  35  70 W9G22     30.10F
W YELLOWSTONE  NOT AVBL

$$
WYZ002>013-054>058-071-098>099-232300-
NORTHERN WYOMING

CITY           SKY/WX    TMP DP  RH WIND       PRES   REMARKS
JACKSON          N/A     54  37  52 MISG        N/A
CODY           FAIR      65  34  31 W9G21     29.88F
GREYBULL       FAIR      48  38  68 S3        29.85F
WORLAND        FAIR      52  41  66 CALM      29.86F
SHERIDAN       FAIR      65  36  34 W14       29.78S
BUFFALO        FAIR      61  30  31 E6        29.83F
GILLETTE       FAIR      62  33  33 SW15      29.81F
HULETT         FAIR      59  36  41 S13       29.81F
NEWCASTLE      FAIR      55  32  41 E9        29.86F

$$
WYZ014>020-022>026-101>103-232300-
CENTRAL WYOMING

CITY           SKY/WX    TMP DP  RH WIND       PRES   REMARKS
BIG PINEY      CLOUDY    54  35  48 W7        30.16F
PINEDALE       CLOUDY    46  36  66 SE3       30.18S
DUBOIS         MOCLDY    54  32  43 NW13G25   30.07F
LANDER         FAIR      67  29  24 W26G33    29.95F
RIVERTON       FAIR      55  35  47 CALM      29.97F
CASPER         FAIR      59  36  42 SW18      29.98F
DOUGLAS        FAIR      63  38  39 W17G23    29.92S

$$
WYZ021-027>030-104>119-232300-
SOUTHERN WYOMING

CITY           SKY/WX    TMP DP  RH WIND       PRES   REMARKS
EVANSTON       FAIR      59  34  39 SW16      30.22F
KEMMERER       FAIR      55  34  44 SW23G29   30.19F
FORT BRIDGER   FAIR      60  34  38 W21G30    30.23F
ROCK SPRINGS   FAIR      57  34  41 W20G29    30.17F
DIXON          FAIR      57  35  44 SW10      30.23S
RAWLINS        FAIR      53  37  54 SW16G24   30.13F
SARATOGA       FAIR      54  32  43 SW21      30.17F
LARAMIE        FAIR      57  28  33 W36G44    30.09F
CHEYENNE       FAIR      63  29  27 W21G30    30.04F
TORRINGTON     FAIR      67  38  34 W22G33    29.89F
PINE BLUFFS    FAIR      63  30  29 W15G21    29.99F

$$




USA.gov is the U.S. government's official web portal to all federal, state and local government web resources and services.